sat.trackr.live / text

‹ back to catalog

STARLINK-30098

NORAD 56292 · 2023-056G

PAYLOAD ACTIVE UNKNOWN

§ Identity

Operator
Country
US
Launch date
2023-04-19
Launch site
AFETR
Launch vehicle
Mass (kg)
RCS (m²)

Purposes: comms

External: N2YO · Heavens-Above · Gunter

§ Orbital elements

Epoch: 2026-09-20T04:17:23.686368Z

Period
94.27 min
Inclination
43.0017°
Eccentricity
0.0000943
Mean motion
15.27581410 rev/d
Perigee alt
482.4 km
Apogee alt
483.7 km
Semi-major
6,861.2 km
B*
9.7831e-5
RAAN
190.6212°
Arg perigee
268.6465°
Mean anomaly
91.4279°
Rev number
18,978

§ Raw data

STARLINK-300981 56292U 23056G   26263.17874637  .00002431  00000+0  97831-4 0  99932 56292  43.0017 190.6212 0000943 268.6465  91.4279 15.27581410189784

JSON: /api/v1/satellites/56292 · /tle

For live sub-satellite position, see the globe view (requires WebGL).

§ Visibility from observer

Set your observer location to see the next 7 days of passes ≥ 10°. The values pass through the URL so the page stays shareable.

No JS? Fill the form by hand. The geolocation button needs JavaScript.